Weather History for Horseshoe Bay, TX

Change the Weather History Date:

Saturday, February 16, 2013

  Actual Average (KBMQ) Record (KBMQ)
Temperature  
Mean Temperature 46 °F -  
Max Temperature 62 °F 61 °F 81 °F (2006)
Min Temperature 30 °F 41 °F 19 °F (2007)
Degree Days  
Heating Degree Days 19    
Moisture  
Dew Point 26 °F    
Average Humidity 51    
Maximum Humidity 86    
Minimum Humidity 22    
Precipitation  
Precipitation 0.00 in - - ()
Sea Level Pressure  
Sea Level Pressure 30.30 in    
Wind  
Wind Speed 2 mph (SW)    
Max Wind Speed 9 mph    
Max Gust Speed -    
Visibility 10 miles    
Events      
Averages and records for this station are not official NWS values.
T = Trace of Precipitation, MM = Missing Value Source: NWS Daily Summary

Daily Weather History Graph

Daily Weather History Graph

Search for Another Location

Airport:

Trip Planner

Search our weather history database for the weather conditions in past years. The results will help you decide how hot, cold, wet, or windy it might be!

Date:

Astronomy

Feb. 16, 2013 Rise Set
Actual Time 6:12 AM MST 5:22 PM MST
Civil Twilight 5:48 AM MST 5:47 PM MST
Nautical Twilight 5:19 AM MST 6:15 PM MST
Astronomical Twilight 4:52 AM MST 6:43 PM MST
Moon 9:56 AM MST (2/16) 11:48 PM MST (2/16)
Length of Visible Light 11h 59m
Length of Day
11h 09m
Waxing Crescent, 40% of the Moon is Illuminated
Feb 16
Waxing Crescent
Feb 17
First Quarter
Feb 25
Full
Mar 4
Last Quarter
Mar 11
New

Hourly Weather History & Observations

Time (MST) Temp. Windchill Dew Point Humidity Pressure Visibility Wind Dir Wind Speed Gust Speed Precip Events Conditions
12:15 AM 32.0 °F - 26.6 °F 80% 30.39 in 10.0 mi Calm Calm - N/A   Clear
12:35 AM 32.0 °F - 26.6 °F 80% 30.39 in 10.0 mi Calm Calm - N/A   Clear
12:55 AM 32.0 °F - 26.6 °F 80% 30.40 in 10.0 mi Calm Calm - N/A   Clear
1:15 AM 32.0 °F - 26.6 °F 80% 30.39 in 10.0 mi Calm Calm - N/A   Clear
1:35 AM 32.0 °F - 26.6 °F 80% 30.39 in 10.0 mi Calm Calm - N/A   Clear
1:55 AM 32.0 °F 28.7 °F 26.6 °F 80% 30.38 in 10.0 mi SSW 3.5 mph - N/A   Clear
2:15 AM 32.0 °F - 26.6 °F 80% 30.39 in 10.0 mi Calm Calm - N/A   Clear
2:35 AM 30.2 °F - 26.6 °F 86% 30.40 in 10.0 mi Calm Calm - N/A   Clear
2:55 AM 30.2 °F - 26.6 °F 86% 30.40 in 10.0 mi Calm Calm - N/A   Clear
3:15 AM 30.2 °F - 26.6 °F 86% 30.40 in 10.0 mi Calm Calm - N/A   Clear
3:35 AM 30.2 °F - 26.6 °F 86% 30.40 in 10.0 mi Calm Calm - N/A   Clear
3:55 AM 30.2 °F - 26.6 °F 86% 30.41 in 10.0 mi Calm Calm - N/A   Clear
4:15 AM 30.2 °F - 26.6 °F 86% 30.41 in 10.0 mi Calm Calm - N/A   Clear
4:35 AM 30.2 °F 26.7 °F 26.6 °F 86% 30.41 in 10.0 mi WSW 3.5 mph - N/A   Clear
4:55 AM 30.2 °F - 26.6 °F 86% 30.41 in 10.0 mi Calm Calm - N/A   Clear
5:15 AM 30.2 °F - 26.6 °F 86% 30.41 in 10.0 mi Calm Calm - N/A   Clear
5:35 AM 30.2 °F - 26.6 °F 86% 30.41 in 10.0 mi Calm Calm - N/A   Clear
5:55 AM 30.2 °F - 26.6 °F 86% 30.42 in 10.0 mi Calm Calm - N/A   Clear
6:15 AM 32.0 °F 27.5 °F 24.8 °F 75% 30.42 in 10.0 mi WSW 4.6 mph - N/A   Clear
6:35 AM 33.8 °F 30.8 °F 23.0 °F 65% 30.42 in 10.0 mi WSW 3.5 mph - N/A   Clear
6:55 AM 33.8 °F 30.8 °F 23.0 °F 65% 30.43 in 10.0 mi West 3.5 mph - N/A   Clear
7:15 AM 37.4 °F 32.8 °F 23.0 °F 56% 30.43 in 10.0 mi West 5.8 mph - N/A   Clear
7:35 AM 39.2 °F 35.9 °F 23.0 °F 52% 30.44 in 10.0 mi West 4.6 mph - N/A   Clear
7:55 AM 41.0 °F 37.1 °F 24.8 °F 53% 30.44 in 10.0 mi WNW 5.8 mph - N/A   Clear
8:15 AM 42.8 °F 39.3 °F 24.8 °F 49% 30.44 in 10.0 mi WNW 5.8 mph - N/A   Clear
8:35 AM 44.6 °F 42.2 °F 24.8 °F 46% 30.44 in 10.0 mi WNW 4.6 mph - N/A   Clear
11:15 AM 55.4 °F - 28.4 °F 36% 30.39 in 10.0 mi NW 6.9 mph - N/A   Clear
11:35 AM 55.4 °F - 26.6 °F 33% 30.37 in 10.0 mi SW 3.5 mph - N/A   Clear
11:55 AM 57.2 °F - 26.6 °F 31% 30.36 in 10.0 mi Calm Calm - N/A   Clear
12:15 PM 59.0 °F - 26.6 °F 29% 30.34 in 10.0 mi Calm Calm - N/A   Clear
12:35 PM 59.0 °F - 28.4 °F 31% 30.32 in 10.0 mi ENE 4.6 mph - N/A   Clear
12:55 PM 59.0 °F - 26.6 °F 29% 30.30 in 10.0 mi Calm Calm - N/A   Clear
1:15 PM 60.8 °F - 26.6 °F 27% 30.29 in 10.0 mi Calm Calm - N/A   Clear
1:35 PM 60.8 °F - 26.6 °F 27% 30.28 in 10.0 mi WSW 9.2 mph - N/A   Clear
1:55 PM 62.6 °F - 24.8 °F 24% 30.27 in 10.0 mi West 6.9 mph - N/A   Clear
2:15 PM 62.6 °F - 26.6 °F 26% 30.26 in 10.0 mi WNW 4.6 mph - N/A   Clear
2:35 PM 62.6 °F - 26.6 °F 26% 30.25 in 10.0 mi WNW 4.6 mph - N/A   Clear
2:55 PM 62.6 °F - 24.8 °F 24% 30.24 in 10.0 mi West 4.6 mph - N/A   Clear
3:15 PM 62.6 °F - 24.8 °F 24% 30.24 in 10.0 mi WNW 6.9 mph - N/A   Clear
3:35 PM 62.6 °F - 24.8 °F 24% 30.23 in 10.0 mi Calm Calm - N/A   Clear
3:55 PM 62.6 °F - 23.0 °F 22% 30.22 in 10.0 mi Calm Calm - N/A   Clear
4:15 PM 62.6 °F - 23.0 °F 22% 30.21 in 10.0 mi Calm Calm - N/A   Clear
4:35 PM 62.6 °F - 24.8 °F 24% 30.21 in 10.0 mi Calm Calm - N/A   Clear
4:55 PM 62.6 °F - 24.8 °F 24% 30.21 in 10.0 mi Calm Calm - N/A   Clear
5:15 PM 59.0 °F - 26.6 °F 29% 30.20 in 10.0 mi Calm Calm - N/A   Clear
5:35 PM 53.6 °F - 30.2 °F 41% 30.20 in 10.0 mi Calm Calm - N/A   Clear
5:55 PM 50.0 °F - 32.0 °F 50% 30.20 in 10.0 mi Calm Calm - N/A   Clear
6:15 PM 51.8 °F - 28.4 °F 41% 30.20 in 10.0 mi SSE 3.5 mph - N/A   Clear
6:35 PM 51.8 °F - 28.4 °F 41% 30.20 in 10.0 mi SSE 3.5 mph - N/A   Clear
6:55 PM 50.0 °F - 28.4 °F 43% 30.20 in 10.0 mi SSE 4.6 mph - N/A   Clear
7:15 PM 50.0 °F - 28.4 °F 43% 30.20 in 10.0 mi SSE 4.6 mph - N/A   Clear
7:35 PM 51.8 °F - 26.6 °F 38% 30.20 in 10.0 mi SSE 5.8 mph - N/A   Clear
7:55 PM 50.0 °F - 26.6 °F 40% 30.20 in 10.0 mi SSE 4.6 mph - N/A   Clear
8:15 PM 50.0 °F - 26.6 °F 40% 30.20 in 10.0 mi South 3.5 mph - N/A   Clear
8:35 PM 48.2 °F - 28.4 °F 46% 30.20 in 10.0 mi South 5.8 mph - N/A   Clear
8:55 PM 50.0 °F - 28.4 °F 43% 30.20 in 10.0 mi SSW 5.8 mph - N/A   Clear
9:15 PM 51.8 °F - 26.6 °F 38% 30.20 in 10.0 mi SSW 4.6 mph - N/A   Clear
9:35 PM 51.8 °F - 26.6 °F 38% 30.20 in 10.0 mi SSW 4.6 mph - N/A   Clear
9:55 PM 51.8 °F - 26.6 °F 38% 30.20 in 10.0 mi SW 4.6 mph - N/A   Clear
10:15 PM 51.8 °F - 26.6 °F 38% 30.19 in 10.0 mi SSW 4.6 mph - N/A   Clear
10:35 PM 51.8 °F - 26.6 °F 38% 30.18 in 10.0 mi SSW 4.6 mph - N/A   Clear
10:55 PM 51.8 °F - 26.6 °F 38% 30.19 in 10.0 mi SSW 4.6 mph - N/A   Clear
11:15 PM 50.0 °F - 26.6 °F 40% 30.18 in 10.0 mi SSW 5.8 mph - N/A   Clear
11:35 PM 51.8 °F - 26.6 °F 38% 30.17 in 10.0 mi SSW 6.9 mph - N/A   Clear
11:55 PM 51.8 °F - 26.6 °F 38% 30.17 in 10.0 mi SSW 6.9 mph - N/A   Clear